Regional Weather Roundup
Issued by NWS

Home | Current Version | Previous Version | Text Only | Print | Product List | Glossary Off
Versions: 1 2 3 4 5 6 7 8 9 10 11 12 13 14 15 16 17 18 19 20 21 22 23 24 25 26 27 28 29 30 31 32 33 34 35 36 37 38 39 40 41 42 43 44 45 46 47 48 49 50

000
ASUS45 KBOU 250107
RWRCO

WEATHER ROUNDUP FOR COLORADO
NATIONAL WEATHER SERVICE DENVER/BOULDER CO
600 PM MST FRI FEB 24 2017

NOTE: "FAIR" INDICATES FEW OR NO CLOUDS BELOW 12000 FEET WITH NO
SIGNIFICANT WEATHER AND/OR OBSTRUCTIONS TO VISIBILITY.

COZ001>005-013-030-031-250200-
...NORTHWEST COLORADO...

CITY           SKY/WX    TMP DP  RH WIND       PRES   REMARKS
CRAIG          FAIR      17   8  67 W5        29.99R WCI  10
HAYDEN         FAIR      14   3  62 W6        29.97R WCI   5
MEEKER         CLOUDY    22  12  65 NE6       29.97R WCI  14
MOUNT WERNER   NOT AVBL
STEAMBOAT SPGS MOCLDY    15   7  69 SW6       29.95R WCI   7
WALDEN         NOT AVBL
$$

COZ006>008-011-250200-
...WEST CENTRAL VALLEYS...

CITY           SKY/WX    TMP DP  RH WIND       PRES   REMARKS
GRAND JUNCTION FLURRIES  31  15  52 N8        30.01R WCI  23
MONTROSE       CLOUDY    25  20  81 S9        30.02R WCI  15
EAGLE          CLOUDY    23  16  74 E12       29.95R WCI  12
RIFLE          CLOUDY    25  20  81 W3        30.00R
DELTA          FAIR      34   3  27 W9        30.00R WCI  26
NUCLA          FAIR      30   3  31 W8        30.03R WCI  23
$$

COZ017>023-064>068-250200-
...SOUTHWEST COLORADO...

CITY           SKY/WX    TMP DP  RH WIND       PRES   REMARKS
DURANGO        FAIR      26   9  48 NW14      29.96R WCI  14
CORTEZ         FAIR      28  16  60 N3        30.00R
PAGOSA SPRINGS FAIR      25   3  39 SW13G24   29.92R WCI  14
TELLURIDE      LGT SNOW  14   9  80 W5        29.93R WCI   7
WOLF CREEK PAS CLOUDY     1   0  92 SW17G26   29.84R WCI -19
$$

COZ009-010-012-014-032>034-037-058>063-250200-
...CENTRAL COLORADO...

CITY           SKY/WX    TMP DP  RH WIND       PRES   REMARKS
ASPEN          LGT SNOW  16  13  88 N5        29.89R VSB 1   WCI   9
BUENA VISTA    FAIR      20   4  48 W12G18    29.86S WCI   8
COPPER MTN     LGT SNOW   5  -2  72 MISG      29.74R VSB 3/4
BERTHOUD PASS  CLOUDY    -6 -15  65 NW22      29.70R WCI -31
COTTONWOOD PAS FAIR      16   0  48 W6        29.82R WCI   7
GUNNISON       FLURRIES  19  10  68 SW12      29.91R WCI   7
KREMMLING      CLOUDY    23   9  54 NW6       29.93R WCI  16
LEADVILLE      CLOUDY     8  -3  61 CALM      29.79R
MONARCH PASS   CLOUDY     3   0  85 W23G36    29.86R WCI -19
SALIDA         MOCLDY    25   6  43 W16       29.96R WCI  13
SUNLIGHT       NOT AVBL
WILKERSON PASS CLOUDY     9  -8  47 W6        29.79R WCI  -1
$$

COZ069>075-250200-
...SAN LUIS VALLEY/SANGRE DE CRISTO MOUNTAINS...

CITY           SKY/WX    TMP DP  RH WIND       PRES   REMARKS
ALAMOSA        FAIR      24   9  52 NW5       29.89R WCI  18
LA VETA PASS   LGT SNOW  12   9  85 SW6G17    29.83R VSB 3/4 WCI   3
SAGUACHE       MOCLDY    23   5  46 NW17      29.89R WCI   9
$$

COZ035-036-038>040-250200-
...NORTHERN COLORADO FRONT RANGE...

CITY           SKY/WX    TMP DP  RH WIND       PRES   REMARKS
DENVER INTL AP CLOUDY    23  14  68 E7        29.99R WCI  15
DMNS CITY PARK   N/A     24  11  58 N1        29.99R
AURORA         MOCLDY    22  13  69 CALM      29.98R
FRONT RANGE AP NOT AVBL
ERIE MUNI ARPT CLOUDY    25  15  66 CALM      30.00R
BOULDER MUN AP CLOUDY    23  21  93 NW5       30.00R WCI  17
CENTENNIAL     MOCLDY    22  11  62 CALM      29.96R
BROOMFIELD     FLURRIES  25  16  68 CALM      29.98R
FORT COLLINS   CLOUDY    24  15  68 SE5       30.02R WCI  18
LONGMONT       FAIR      22  16  77 NW3       30.03R
$$

COZ041-046-047-076>085-087-088-250200-
...PIKES PEAK/PALMER DIVIDE AND SOUTHERN FOOTHILLS...

CITY           SKY/WX    TMP DP  RH WIND       PRES   REMARKS
COLO. SPRINGS  CLOUDY    24  12  60 E8        29.95R WCI  15
A. F. ACADEMY  FLURRIES  19  16  86 N10       29.93R WCI   8
SCHRIEVER AFB  FAIR      22  10  59 NE7       29.96R WCI  14
ELLICOTT       CLOUDY   N/A N/A N/A E8        29.95R
FALCON         LGT SNOW  19  12  73 NE6       29.95R WCI  11
FORT CARSON    NOT AVBL
LIMON          CLOUDY    21  13  71 NW7       30.00R WCI  12
MONUMENT HILL  CLOUDY    16  10  79 CALM      29.93S
TRINIDAD       FAIR      27   9  46 E9        29.95R WCI  18
$$

COZ042>045-048>051-090-091-250200-
...NORTHEAST COLORADO...

CITY           SKY/WX    TMP DP  RH WIND       PRES   REMARKS
GREELEY ARPT   CLOUDY    24  16  71 E5        30.04R WCI  18
AKRON          CLOUDY    22  16  78 NW5       30.02R WCI  16
BURLINGTON     CLOUDY    26  17  68 N8        30.04R WCI  18
WRAY           NOT AVBL
STERLING       CLOUDY    23  19  86 CALM      30.06R
HOLYOKE        FAIR      27  21  80 N3        30.07R
FORT MORGAN    MOCLDY    23  17  77 N3        30.05R
$$

COZ086-089-092>099-250200-
...SOUTHEAST COLORADO...

CITY           SKY/WX    TMP DP  RH WIND       PRES   REMARKS
PUEBLO         MOCLDY    32   9  38 SE7       29.98R WCI  26
LA JUNTA       FAIR      32  11  41 NE7       30.02R WCI  26
LAMAR          FAIR      30  12  47 NE9       30.03R WCI  22
SPRINGFIELD      N/A     28  12  51 NE8       30.01R WCI  20
$$



USA.gov is the U.S. government's official web portal to all federal, state and local government web resources and services.